Time,TemperatureF,DewpointF,PressureIn,WindDirection,WindDirectionDegrees,WindSpeedMPH,WindSpeedGustMPH,Humidity,HourlyPrecipIn,Conditions,Clouds,dailyrainin,SoftwareType,DateUTC
2013-09-11 00:03:00,75.4,73.9,29.89,SSW,202,0.0,-999.0,95,-99.99,,,0.00,Acu-Link.com,2013-09-11 04:03:00,
2013-09-11 00:18:00,75.2,73.7,29.89,SSW,202,0.0,-999.0,95,-99.99,,,0.00,Acu-Link.com,2013-09-11 04:18:00,
2013-09-11 00:34:00,74.7,74.1,29.91,WSW,247,0.0,-999.0,98,-99.99,,,0.00,Acu-Link.com,2013-09-11 04:34:00,
2013-09-11 00:49:00,74.5,73.9,29.90,SSE,157,0.0,-999.0,98,-99.99,,,0.00,Acu-Link.com,2013-09-11 04:49:00,
2013-09-11 01:04:00,74.7,74.1,29.91,SE,135,0.0,-999.0,98,-99.99,,,0.00,Acu-Link.com,2013-09-11 05:04:00,
2013-09-11 01:20:00,74.5,73.9,29.91,ESE,112,0.0,-999.0,98,-99.99,,,0.00,Acu-Link.com,2013-09-11 05:20:00,
2013-09-11 01:35:00,74.8,74.2,29.91,NNW,337,0.0,-999.0,98,-99.99,,,0.00,Acu-Link.com,2013-09-11 05:35:00,
2013-09-11 01:50:00,75.0,74.4,29.90,SW,225,0.0,-999.0,98,-99.99,,,0.00,Acu-Link.com,2013-09-11 05:50:00,
2013-09-11 02:06:00,75.4,74.8,29.90,West,270,0.0,-999.0,98,-99.99,,,0.00,Acu-Link.com,2013-09-11 06:06:00,
2013-09-11 02:21:00,75.4,74.8,29.92,SW,225,0.0,-999.0,98,-99.99,,,0.00,Acu-Link.com,2013-09-11 06:21:00,
2013-09-11 02:36:00,75.2,74.6,29.90,SSE,157,0.0,-999.0,98,-99.99,,,0.00,Acu-Link.com,2013-09-11 06:36:00,
2013-09-11 02:52:00,74.8,74.2,29.91,East,90,0.0,-999.0,98,-99.99,,,0.00,Acu-Link.com,2013-09-11 06:52:00,
2013-09-11 03:07:00,74.8,74.2,29.90,South,180,0.0,-999.0,98,-99.99,,,0.00,Acu-Link.com,2013-09-11 07:07:00,
2013-09-11 03:22:00,74.8,74.2,29.90,SSE,157,0.0,-999.0,98,-99.99,,,0.00,Acu-Link.com,2013-09-11 07:22:00,
2013-09-11 03:37:00,74.5,73.9,29.90,South,180,0.0,-999.0,98,-99.99,,,0.00,Acu-Link.com,2013-09-11 07:37:00,
2013-09-11 03:52:00,74.7,74.1,29.90,West,270,0.0,-999.0,98,-99.99,,,0.00,Acu-Link.com,2013-09-11 07:52:00,
2013-09-11 04:08:00,74.8,74.2,29.90,SSW,202,0.0,-999.0,98,-99.99,,,0.00,Acu-Link.com,2013-09-11 08:08:00,
2013-09-11 04:23:00,74.8,74.2,29.90,SSW,202,0.0,-999.0,98,-99.99,,,0.00,Acu-Link.com,2013-09-11 08:23:00,
2013-09-11 04:38:00,75.2,74.6,29.91,SSW,202,1.1,-999.0,98,-99.99,,,0.00,Acu-Link.com,2013-09-11 08:38:00,
2013-09-11 04:53:00,75.4,74.8,29.92,SW,225,0.0,-999.0,98,-99.99,,,0.00,Acu-Link.com,2013-09-11 08:53:00,
2013-09-11 05:08:00,75.6,75.0,29.92,NE,45,1.1,-999.0,98,-99.99,,,0.00,Acu-Link.com,2013-09-11 09:08:00,
2013-09-11 05:23:00,75.6,75.0,29.91,ESE,112,2.2,-999.0,98,-99.99,,,0.00,Acu-Link.com,2013-09-11 09:23:00,
2013-09-11 05:39:00,75.6,75.0,29.92,SSW,202,0.0,-999.0,98,-99.99,,,0.00,Acu-Link.com,2013-09-11 09:39:00,
2013-09-11 05:54:00,75.0,74.4,29.92,SW,225,0.0,-999.0,98,-99.99,,,0.00,Acu-Link.com,2013-09-11 09:54:00,
2013-09-11 06:09:00,74.8,74.2,29.93,South,180,0.0,-999.0,98,-99.99,,,0.00,Acu-Link.com,2013-09-11 10:09:00,
2013-09-11 06:24:00,74.8,74.2,29.93,ENE,67,0.0,-999.0,98,-99.99,,,0.00,Acu-Link.com,2013-09-11 10:24:00,
2013-09-11 06:40:00,75.0,74.4,29.92,East,90,1.7,-999.0,98,-99.99,,,0.00,Acu-Link.com,2013-09-11 10:40:00,
2013-09-11 06:55:00,75.2,74.6,29.93,SSW,202,2.2,-999.0,98,-99.99,,,0.00,Acu-Link.com,2013-09-11 10:55:00,
2013-09-11 07:10:00,75.6,75.0,29.92,South,180,1.7,-999.0,98,-99.99,,,0.00,Acu-Link.com,2013-09-11 11:10:00,
2013-09-11 07:26:00,75.9,75.3,29.93,SSE,157,2.2,-999.0,98,-99.99,,,0.00,Acu-Link.com,2013-09-11 11:26:00,
2013-09-11 07:41:00,75.9,75.3,29.93,SW,225,2.7,-999.0,98,-99.99,,,0.00,Acu-Link.com,2013-09-11 11:41:00,
2013-09-11 07:56:00,76.8,76.2,29.94,NNW,337,1.7,-999.0,98,-99.99,,,0.00,Acu-Link.com,2013-09-11 11:56:00,
2013-09-11 08:12:00,77.5,76.9,29.93,West,270,3.7,-999.0,98,-99.99,,,0.00,Acu-Link.com,2013-09-11 12:12:00,
2013-09-11 08:27:00,78.4,77.8,29.92,West,270,1.7,-999.0,98,-99.99,,,0.00,Acu-Link.com,2013-09-11 12:27:00,
2013-09-11 08:42:00,79.5,78.3,29.92,WSW,247,1.7,-999.0,96,-99.99,,,0.00,Acu-Link.com,2013-09-11 12:42:00,
2013-09-11 08:57:00,80.4,77.5,29.93,South,180,6.3,-999.0,91,-99.99,,,0.00,Acu-Link.com,2013-09-11 12:57:00,
2013-09-11 09:12:00,82.0,77.7,29.92,ESE,112,3.2,-999.0,87,-99.99,,,0.00,Acu-Link.com,2013-09-11 13:12:00,
2013-09-11 09:28:00,82.9,77.9,29.93,WSW,247,2.7,-999.0,85,-99.99,,,0.00,Acu-Link.com,2013-09-11 13:28:00,
2013-09-11 09:43:00,83.8,78.1,29.94,South,180,2.7,-999.0,83,-99.99,,,0.00,Acu-Link.com,2013-09-11 13:43:00,
2013-09-11 09:58:00,84.0,77.5,29.92,SW,225,0.0,-999.0,81,-99.99,,,0.00,Acu-Link.com,2013-09-11 13:58:00,
2013-09-11 10:13:00,84.4,77.9,29.92,NW,315,2.2,-999.0,81,-99.99,,,0.00,Acu-Link.com,2013-09-11 14:13:00,
2013-09-11 10:28:00,84.7,77.4,29.91,East,90,4.2,-999.0,79,-99.99,,,0.00,Acu-Link.com,2013-09-11 14:28:00,
2013-09-11 10:44:00,84.9,77.6,29.91,SW,225,2.7,-999.0,79,-99.99,,,0.00,Acu-Link.com,2013-09-11 14:44:00,
2013-09-11 10:59:00,85.6,77.5,29.93,North,0,1.7,-999.0,77,-99.99,,,0.00,Acu-Link.com,2013-09-11 14:59:00,
2013-09-11 11:14:00,86.7,78.2,29.91,SSW,202,2.7,-999.0,76,-99.99,,,0.00,Acu-Link.com,2013-09-11 15:14:00,
2013-09-11 11:30:00,86.5,78.0,29.91,West,270,2.2,-999.0,76,-99.99,,,0.00,Acu-Link.com,2013-09-11 15:30:00,
2013-09-11 11:45:00,86.7,78.2,29.91,South,180,2.7,-999.0,76,-99.99,,,0.00,Acu-Link.com,2013-09-11 15:45:00,
2013-09-11 12:00:00,83.7,76.9,29.91,South,180,3.7,-999.0,80,-99.99,,,0.00,Acu-Link.com,2013-09-11 16:00:00,
2013-09-11 12:16:00,84.9,77.3,29.90,SW,225,2.2,-999.0,78,-99.99,,,0.00,Acu-Link.com,2013-09-11 16:16:00,
2013-09-11 12:31:00,86.0,78.3,29.89,SSW,202,2.7,-999.0,78,-99.99,,,0.00,Acu-Link.com,2013-09-11 16:31:00,
2013-09-11 12:46:00,84.0,77.1,29.90,NNW,337,2.7,-999.0,80,-99.99,,,0.00,Acu-Link.com,2013-09-11 16:46:00,
2013-09-11 13:01:00,84.2,77.3,29.89,West,270,4.7,-999.0,80,-99.99,,,0.00,Acu-Link.com,2013-09-11 17:01:00,
2013-09-11 13:17:00,83.1,77.0,29.89,NE,45,3.2,-999.0,82,-99.99,,,0.00,Acu-Link.com,2013-09-11 17:17:00,
2013-09-11 13:32:00,85.5,78.2,29.90,East,90,3.2,-999.0,79,-99.99,,,0.00,Acu-Link.com,2013-09-11 17:32:00,
2013-09-11 13:47:00,85.1,77.4,29.88,SSE,157,2.7,-999.0,78,-99.99,,,0.00,Acu-Link.com,2013-09-11 17:47:00,
2013-09-11 14:03:00,83.7,77.2,29.89,SSW,202,2.7,-999.0,81,-99.99,,,0.00,Acu-Link.com,2013-09-11 18:03:00,
2013-09-11 14:18:00,83.7,77.2,29.86,WNW,292,1.1,-999.0,81,-99.99,,,0.00,Acu-Link.com,2013-09-11 18:18:00,
2013-09-11 14:33:00,86.9,77.6,29.86,South,180,2.7,-999.0,74,-99.99,,,0.00,Acu-Link.com,2013-09-11 18:33:00,
2013-09-11 14:48:00,88.2,78.0,29.85,WNW,292,3.2,-999.0,72,-99.99,,,0.00,Acu-Link.com,2013-09-11 18:48:00,
2013-09-11 15:03:00,88.7,78.9,29.85,WNW,292,2.7,-999.0,73,-99.99,,,0.00,Acu-Link.com,2013-09-11 19:03:00,
2013-09-11 15:19:00,88.7,78.1,29.83,SSW,202,3.7,-999.0,71,-99.99,,,0.00,Acu-Link.com,2013-09-11 19:19:00,
2013-09-11 15:34:00,89.1,77.6,29.82,West,270,2.7,-999.0,69,-99.99,,,0.00,Acu-Link.com,2013-09-11 19:34:00,
2013-09-11 15:49:00,88.3,77.7,29.83,East,90,3.2,-999.0,71,-99.99,,,0.00,Acu-Link.com,2013-09-11 19:49:00,
2013-09-11 16:05:00,88.0,77.8,29.80,East,90,2.2,-999.0,72,-99.99,,,0.00,Acu-Link.com,2013-09-11 20:05:00,
2013-09-11 16:20:00,88.3,77.7,29.80,SW,225,1.1,-999.0,71,-99.99,,,0.00,Acu-Link.com,2013-09-11 20:20:00,
2013-09-11 16:35:00,88.9,76.9,29.80,SSE,157,4.2,-999.0,68,-99.99,,,0.00,Acu-Link.com,2013-09-11 20:35:00,
2013-09-11 16:51:00,87.3,76.7,29.81,WSW,247,1.7,-999.0,71,-99.99,,,0.00,Acu-Link.com,2013-09-11 20:51:00,
2013-09-11 17:06:00,86.0,77.1,29.81,West,270,3.7,-999.0,75,-99.99,,,0.00,Acu-Link.com,2013-09-11 21:06:00,
2013-09-11 17:21:00,86.5,76.8,29.80,WNW,292,4.7,-999.0,73,-99.99,,,0.00,Acu-Link.com,2013-09-11 21:21:00,
2013-09-11 17:36:00,85.6,76.3,29.80,West,270,0.0,-999.0,74,-99.99,,,0.00,Acu-Link.com,2013-09-11 21:36:00,
2013-09-11 17:51:00,84.9,76.5,29.82,SSW,202,1.7,-999.0,76,-99.99,,,0.00,Acu-Link.com,2013-09-11 21:51:00,
2013-09-11 18:23:00,83.1,74.7,29.83,West,270,0.0,-999.0,76,-99.99,,,0.00,Acu-Link.com,2013-09-11 22:23:00,
2013-09-11 18:38:00,82.2,74.6,29.82,East,90,1.7,-999.0,78,-99.99,,,0.00,Acu-Link.com,2013-09-11 22:38:00,
2013-09-11 18:53:00,80.6,74.2,29.81,SSE,157,2.2,-999.0,81,-99.99,,,0.00,Acu-Link.com,2013-09-11 22:53:00,
2013-09-11 19:08:00,79.3,74.0,29.80,SSE,157,0.0,-999.0,84,-99.99,,,0.00,Acu-Link.com,2013-09-11 23:08:00,
2013-09-11 19:24:00,78.4,73.9,29.79,South,180,0.0,-999.0,86,-99.99,,,0.00,Acu-Link.com,2013-09-11 23:24:00,
2013-09-11 19:39:00,77.5,73.7,29.79,SE,135,0.0,-999.0,88,-99.99,,,0.00,Acu-Link.com,2013-09-11 23:39:00,
2013-09-11 19:54:00,77.0,73.8,29.77,SE,135,1.7,-999.0,90,-99.99,,,0.00,Acu-Link.com,2013-09-11 23:54:00,
2013-09-11 20:09:00,76.8,73.3,29.78,South,180,1.7,-999.0,89,-99.99,,,0.00,Acu-Link.com,2013-09-12 00:09:00,
2013-09-11 20:25:00,77.0,73.5,29.80,South,180,5.3,-999.0,89,-99.99,,,0.00,Acu-Link.com,2013-09-12 00:25:00,
2013-09-11 20:40:00,77.0,73.8,29.82,SSW,202,0.0,-999.0,90,-99.99,,,0.00,Acu-Link.com,2013-09-12 00:40:00,
2013-09-11 20:55:00,76.5,74.0,29.82,SW,225,1.7,-999.0,92,-99.99,,,0.00,Acu-Link.com,2013-09-12 00:55:00,
2013-09-11 21:10:00,76.1,73.9,29.82,ESE,112,0.0,-999.0,93,-99.99,,,0.00,Acu-Link.com,2013-09-12 01:10:00,
2013-09-11 21:26:00,76.1,73.9,29.83,SW,225,2.7,-999.0,93,-99.99,,,0.00,Acu-Link.com,2013-09-12 01:26:00,
2013-09-11 21:41:00,76.5,74.0,29.85,West,270,0.0,-999.0,92,-99.99,,,0.00,Acu-Link.com,2013-09-12 01:41:00,
2013-09-11 21:56:00,76.3,73.5,29.85,West,270,0.0,-999.0,91,-99.99,,,0.00,Acu-Link.com,2013-09-12 01:56:00,
2013-09-11 22:11:00,76.3,73.5,29.82,West,270,0.0,-999.0,91,-99.99,,,0.00,Acu-Link.com,2013-09-12 02:11:00,
2013-09-11 22:27:00,76.3,73.5,29.81,South,180,1.1,-999.0,91,-99.99,,,0.00,Acu-Link.com,2013-09-12 02:27:00,
2013-09-11 22:42:00,76.3,73.1,29.82,WSW,247,1.7,-999.0,90,-99.99,,,0.00,Acu-Link.com,2013-09-12 02:42:00,
2013-09-11 22:57:00,76.3,73.5,29.80,WNW,292,0.0,-999.0,91,-99.99,,,0.00,Acu-Link.com,2013-09-12 02:57:00,
2013-09-11 23:13:00,76.8,74.3,29.82,WNW,292,3.2,-999.0,92,-99.99,,,0.00,Acu-Link.com,2013-09-12 03:13:00,
2013-09-11 23:28:00,71.2,69.7,29.84,West,270,1.7,-999.0,95,-99.99,,,0.12,Acu-Link.com,2013-09-12 03:28:00,
2013-09-11 23:43:00,69.6,69.0,29.84,South,180,0.0,-999.0,98,-99.99,,,0.63,Acu-Link.com,2013-09-12 03:43:00,
2013-09-11 23:58:00,69.3,68.7,29.83,SSW,202,0.0,-999.0,98,-99.99,,,0.68,Acu-Link.com,2013-09-12 03:58:00,